Location: Austin
(30.3000°N, 97.7500°W)
Time: 03:49:45
(UTC-05:00)

USA 267 - Pass Details

Date: 18 March 2023
Orbit: 1101 x 1106 km, 123.0° (Epoch: 27 March)

Event Time Altitude Azimuth Distance (km) Brightness Sun altitude
Exits shadow 21:16:14 - 161° (SSE) 3,019 5.3 -21.2°
Reaches altitude 10° 21:16:25 10° 162° (SSE) 2,952 5.2 -21.2°
Maximum altitude 21:22:36 45° 233° (SW) 1,454 4.1 -22.5°
Drops below altitude 10° 21:28:49 10° 305° (NW) 2,960 6.4 -23.8°
Sets 21:31:26 0° 312° (NW) 3,919 7.2 -24.4°
